| time (UTC) | temp F | wind direction | speed MPH | gust MPH | rain 1hr in | rain 24hr in | rain mn in | humidity % | barometer mb |
| 20260902114555 | 66 | 98 | 1.0 | 5.0 | 0.00 | 0.00 | 0.00 | 100 | 1022.7 |
| 20260902113053 | 66 | 55 | 1.0 | 5.0 | 0.00 | 0.00 | 0.00 | 100 | 1022.8 |
| 20260902111548 | 67 | 326 | 0.0 | 6.0 | 0.00 | 0.00 | 0.00 | 100 | 1022.6 |
| 20260902110059 | 67 | 124 | 0.0 | 5.0 | 0.00 | 0.00 | 0.00 | 100 | 1022.4 |
| 20260902104601 | 67 | 0 | 0.0 | 4.0 | 0.00 | 0.00 | 0.00 | 100 | 1022.1 |
| 20260902103103 | 67 | 0 | 1.0 | 5.0 | 0.00 | 0.00 | 0.00 | 100 | 1021.9 |
| 20260902101557 | 67 | 101 | 0.0 | 6.0 | 0.00 | 0.00 | 0.00 | 100 | 1022.1 |
| 20260902100057 | 67 | 188 | 0.0 | 1.0 | 0.00 | 0.00 | 0.00 | 100 | 1022.0 |
| 20260902094554 | 66 | 188 | 0.0 | 1.0 | 0.00 | 0.00 | 0.00 | 100 | 1021.8 |
| 20260902093050 | 67 | 0 | 0.0 | 1.0 | 0.00 | 0.00 | 0.00 | 100 | 1021.9 |
| 20260902091600 | 67 | 0 | 0.0 | 1.0 | 0.00 | 0.00 | 0.00 | 100 | 1021.7 |
| 20260902090051 | 67 | 188 | 0.0 | 2.0 | 0.00 | 0.00 | 0.00 | 100 | 1021.7 |
| 20260902084555 | 67 | 0 | 0.0 | 2.0 | 0.00 | 0.00 | 0.00 | 100 | 1021.9 |
| 20260902083103 | 67 | 0 | 0.0 | 0.0 | 0.00 | 0.00 | 0.00 | 100 | 1021.8 |
| 20260902081555 | 67 | 0 | 0.0 | 1.0 | 0.00 | 0.00 | 0.00 | 100 | 1021.8 |
| 20260902080107 | 67 | 0 | 0.0 | 1.0 | 0.00 | 0.00 | 0.00 | 100 | 1021.9 |
| 20260902074602 | 67 | 0 | 0.0 | 1.0 | 0.00 | 0.00 | 0.00 | 100 | 1021.6 |
| 20260902073057 | 67 | 0 | 0.0 | 1.0 | 0.00 | 0.00 | 0.00 | 100 | 1021.7 |
| 20260902071550 | 66 | 0 | 0.0 | 1.0 | 0.00 | 0.00 | 0.00 | 100 | 1021.4 |
| 20260902070051 | 66 | 0 | 0.0 | 2.0 | 0.00 | 0.00 | 0.00 | 100 | 1021.4 |
| 20260902064548 | 66 | 0 | 0.0 | 2.0 | 0.00 | 0.00 | 0.00 | 100 | 1021.4 |
| 20260902063059 | 66 | 0 | 0.0 | 0.0 | 0.00 | 0.00 | 0.00 | 100 | 1021.3 |
| 20260902061610 | 66 | 0 | 0.0 | 1.0 | 0.00 | 0.00 | 0.00 | 100 | 1021.4 |
| 20260902060052 | 66 | 0 | 0.0 | 1.0 | 0.00 | 0.00 | 0.00 | 100 | 1021.5 |
| 20260902054559 | 66 | 63 | 0.0 | 1.0 | 0.00 | 0.00 | 0.00 | 100 | 1021.5 |
| 20260902053057 | 66 | 0 | 0.0 | 2.0 | 0.00 | 0.00 | 0.00 | 100 | 1021.3 |
| 20260902051551 | 66 | 67 | 0.0 | 2.0 | 0.00 | 0.00 | 0.00 | 100 | 1021.0 |
| 20260902050051 | 66 | 0 | 0.0 | 1.0 | 0.00 | 0.00 | 0.00 | 100 | 1020.8 |
| 20260902044558 | 66 | 0 | 0.0 | 2.0 | 0.00 | 0.00 | 0.00 | 100 | 1020.5 |
| 20260902043104 | 65 | 0 | 0.0 | 2.0 | 0.00 | 0.00 | 0.00 | 100 | 1020.4 |
| 20260902041551 | 65 | 0 | 0.0 | 2.0 | 0.00 | 0.00 | 0.00 | 99 | 1020.1 |
| 20260902040052 | 65 | 0 | 0.0 | 1.0 | 0.00 | 0.00 | 0.00 | 98 | 1020.0 |
| 20260902034547 | 64 | 0 | 0.0 | 0.0 | 0.00 | 0.00 | 0.00 | 98 | 1020.0 |
| 20260902033107 | 64 | 0 | 0.0 | 0.0 | 0.00 | 0.00 | 0.00 | 97 | 1020.1 |
| 20260902031554 | 64 | 0 | 0.0 | 0.0 | 0.00 | 0.00 | 0.00 | 96 | 1019.9 |
| 20260902030101 | 65 | 0 | 0.0 | 1.0 | 0.00 | 0.00 | 0.00 | 95 | 1019.7 |
| 20260902024559 | 65 | 0 | 0.0 | 1.0 | 0.00 | 0.00 | 0.00 | 94 | 1019.7 |
| 20260902023055 | 65 | 0 | 0.0 | 0.0 | 0.00 | 0.00 | 0.00 | 94 | 1019.7 |
| 20260902021609 | 65 | 0 | 0.0 | 1.0 | 0.00 | 0.00 | 0.00 | 93 | 1019.9 |
| 20260902020100 | 66 | 0 | 0.0 | 1.0 | 0.00 | 0.00 | 0.00 | 92 | 1019.8 |
| 20260902014602 | 66 | 0 | 0.0 | 0.0 | 0.00 | 0.00 | 0.00 | 92 | 1020.1 |
| 20260902013055 | 66 | 0 | 0.0 | 2.0 | 0.00 | 0.00 | 0.00 | 91 | 1020.1 |
| 20260902011603 | 66 | 0 | 0.0 | 1.0 | 0.00 | 0.00 | 0.00 | 91 | 1020.1 |
| 20260902010058 | 66 | 0 | 0.0 | 0.0 | 0.00 | 0.00 | 0.00 | 89 | 1019.9 |
| 20260902004600 | 66 | 0 | 0.0 | 0.0 | 0.00 | 0.00 | 0.00 | 88 | 1019.7 |
| 20260902003054 | 66 | 0 | 0.0 | 2.0 | 0.00 | 0.00 | 0.00 | 87 | 1019.7 |
| 20260902001558 | 66 | 0 | 0.0 | 2.0 | 0.00 | 0.00 | 0.00 | 85 | 1019.2 |
| 20260902000056 | 66 | 0 | 0.0 | 2.0 | 0.00 | 0.00 | 0.00 | 84 | 1019.2 |
| 20260901234608 | 66 | 0 | 0.0 | 3.0 | 0.00 | 0.00 | 0.00 | 83 | 1019.2 |
| 20260901233058 | 66 | 0 | 0.0 | 4.0 | 0.00 | 0.00 | 0.00 | 81 | 1019.3 |
| 20260901231550 | 66 | 0 | 1.0 | 4.0 | 0.00 | 0.00 | 0.00 | 80 | 1019.3 |
| 20260901230048 | 66 | 116 | 1.0 | 4.0 | 0.00 | 0.00 | 0.00 | 78 | 1019.2 |
| 20260901224557 | 67 | 0 | 1.0 | 5.0 | 0.00 | 0.00 | 0.00 | 77 | 1018.9 |
| 20260901223051 | 67 | 144 | 1.0 | 5.0 | 0.00 | 0.00 | 0.00 | 75 | 1018.8 |
| 20260901221615 | 68 | 167 | 2.0 | 7.0 | 0.00 | 0.00 | 0.00 | 73 | 1018.8 |
| 20260901220120 | 68 | 157 | 3.0 | 7.0 | 0.00 | 0.00 | 0.00 | 72 | 1018.7 |
| 20260901214553 | 68 | 177 | 2.0 | 7.0 | 0.00 | 0.00 | 0.00 | 74 | 1018.8 |
| 20260901213115 | 69 | 160 | 1.0 | 7.0 | 0.00 | 0.00 | 0.00 | 73 | 1018.7 |
| 20260901211552 | 70 | 209 | 2.0 | 6.0 | 0.00 | 0.00 | 0.00 | 69 | 1018.4 |
| 20260901210059 | 70 | 115 | 2.0 | 6.0 | 0.00 | 0.00 | 0.00 | 69 | 1018.4 |
| 20260901204558 | 69 | 161 | 1.0 | 6.0 | 0.00 | 0.00 | 0.00 | 71 | 1018.4 |
| 20260901203100 | 68 | 138 | 2.0 | 8.0 | 0.00 | 0.00 | 0.00 | 71 | 1018.1 |
| 20260901201600 | 69 | 141 | 3.0 | 9.0 | 0.00 | 0.00 | 0.00 | 69 | 1018.2 |
| 20260901200057 | 70 | 180 | 2.0 | 8.0 | 0.00 | 0.00 | 0.00 | 67 | 1018.3 |
| 20260901194556 | 70 | 0 | 2.0 | 8.0 | 0.00 | 0.00 | 0.00 | 66 | 1018.2 |
| 20260901193100 | 71 | 128 | 3.0 | 8.0 | 0.00 | 0.00 | 0.00 | 64 | 1018.3 |
| 20260901191614 | 71 | 160 | 2.0 | 6.0 | 0.00 | 0.00 | 0.00 | 60 | 1018.3 |
| 20260901190059 | 71 | 115 | 3.0 | 9.0 | 0.00 | 0.00 | 0.00 | 58 | 1018.3 |
| 20260901184557 | 72 | 171 | 3.0 | 9.0 | 0.00 | 0.00 | 0.00 | 56 | 1018.2 |
| 20260901183100 | 72 | 160 | 2.0 | 7.0 | 0.00 | 0.00 | 0.00 | 55 | 1018.2 |
| 20260901181552 | 71 | 0 | 2.0 | 6.0 | 0.00 | 0.00 | 0.00 | 56 | 1018.3 |
| 20260901174559 | 72 | 79 | 2.0 | 5.0 | 0.00 | 0.00 | 0.00 | 55 | 1018.0 |
| 20260901173054 | 71 | 123 | 1.0 | 8.0 | 0.00 | 0.00 | 0.00 | 55 | 1018.0 |
| 20260901171559 | 70 | 132 | 1.0 | 5.0 | 0.00 | 0.00 | 0.00 | 58 | 1017.9 |
| 20260901170101 | 69 | 172 | 2.0 | 7.0 | 0.00 | 0.00 | 0.00 | 56 | 1018.0 |
| 20260901164558 | 68 | 113 | 2.0 | 7.0 | 0.00 | 0.00 | 0.00 | 60 | 1018.0 |
| 20260901163056 | 68 | 103 | 2.0 | 4.0 | 0.00 | 0.00 | 0.00 | 62 | 1018.2 |
| 20260901161553 | 67 | 0 | 0.0 | 3.0 | 0.00 | 0.00 | 0.00 | 63 | 1018.2 |
| 20260901160103 | 67 | 71 | 1.0 | 5.0 | 0.00 | 0.00 | 0.00 | 65 | 1018.3 |
| 20260901154557 | 66 | 88 | 2.0 | 8.0 | 0.00 | 0.00 | 0.00 | 65 | 1018.4 |
| 20260901153107 | 66 | 360 | 1.0 | 6.0 | 0.00 | 0.00 | 0.00 | 66 | 1018.5 |
| 20260901151559 | 65 | 96 | 3.0 | 8.0 | 0.00 | 0.00 | 0.00 | 68 | 1018.3 |
| 20260901150058 | 64 | 340 | 1.0 | 8.0 | 0.00 | 0.00 | 0.00 | 69 | 1018.1 |
| 20260901144600 | 63 | 30 | 1.0 | 8.0 | 0.00 | 0.00 | 0.00 | 70 | 1018.3 |
| 20260901143055 | 63 | 61 | 1.0 | 5.0 | 0.00 | 0.00 | 0.00 | 70 | 1018.1 |
| 20260901141603 | 63 | 81 | 1.0 | 3.0 | 0.00 | 0.00 | 0.00 | 70 | 1018.2 |
| 20260901140059 | 62 | 0 | 1.0 | 4.0 | 0.00 | 0.00 | 0.00 | 70 | 1018.5 |
| 20260901134608 | 62 | 355 | 1.0 | 3.0 | 0.00 | 0.00 | 0.00 | 73 | 1018.8 |
| 20260901133051 | 61 | 26 | 0.0 | 3.0 | 0.00 | 0.00 | 0.00 | 74 | 1018.9 |
| 20260901131604 | 61 | 0 | 0.0 | 2.0 | 0.00 | 0.00 | 0.00 | 73 | 1018.6 |
| 20260901130057 | 61 | 0 | 0.0 | 3.0 | 0.00 | 0.00 | 0.00 | 74 | 1018.6 |
| 20260901124553 | 61 | 0 | 0.0 | 2.0 | 0.00 | 0.00 | 0.00 | 75 | 1018.6 |
| 20260901123107 | 61 | 0 | 0.0 | 3.0 | 0.00 | 0.00 | 0.00 | 75 | 1018.7 |
| 20260901121601 | 61 | 21 | 1.0 | 5.0 | 0.00 | 0.00 | 0.00 | 74 | 1018.7 |
| 20260901120058 | 61 | 0 | 0.0 | 3.0 | 0.00 | 0.00 | 0.00 | 73 | 1018.9 |